Location: Cartignies
(50.0929°N, 3.8447°E)
Time: 14:34:00
(UTC+00:00)

Cosmos 332 Rocket - Pass Details

Date: 12 January 2026
Orbit: 672 x 693 km, 74.0° (Epoch: 16 February)

Event Time Altitude Azimuth Distance (km) Brightness Sun altitude
Rises 17:15:16 0° 340° (NNW) 3,039 7.1 -10.6°
Reaches altitude 10° 17:17:43 10° 349° (NNW) 2,122 6.2 -11.0°
Maximum altitude 17:22:10 38° 57° (ENE) 1,042 4.2 -11.6°
Drops below altitude 10° 17:26:37 10° 126° (SE) 2,120 6.0 -12.3°
Sets 17:29:03 0° 134° (SE) 3,035 6.8 -12.7°
